Home > Weather > Fort Myers > Past weeks

Flag for U.S.A. Weather for the Past 2 Weeks in Fort Myers, Florida, U.S.A.

Now
56 °F

Light rain. Mostly cloudy.


Feels Like: 53 °F
Forecast: 48 / 58 °F
Wind: 10 mph from Northwest

Location: Page Field

Current Time: Feb 6, 2016 at 8:14:41 PM

Latest Report: Feb 6, 2016 at 6:53 PM


Visibility: 10 mi

Pressure: 30.08 "Hg

Humidity: 97%

Dew point: 55 °F

Location of Fort MyersLocation

Historic Weather in Fort Myers — Graph

°F

Fort Myers Temperature Yesterday

Maximum temperature yesterday: 65 °F (at 2:53 PM)
Minimum temperature yesterday: 51 °F (at 7:53 AM)
Average temperature yesterday: 58 °F

High & Low Weather Summary for the Past Weeks

 TemperatureHumidityPressure
High84 °F (Feb 3, 2:53 PM)100% (Jan 27, 3:53 AM)30.30 "Hg (Jan 27, 3:53 AM)
Low42 °F (Jan 24, 6:53 AM)24% (Feb 5, 12:53 PM)29.73 "Hg (Jan 28, 4:53 PM)
Average64 °F77%30.07 "Hg
* Reported Jan 22 5:53 PM — Feb 6 5:53 PM, Fort Myers, Weather by CustomWeather, © 2016

Note: Actual official high and low records may vary slightly from our data, if they occured in-between our weather recording intervals... More about our weather records

Advertising

Fort Myers Weather History for the Previous 24 Hours

 ConditionsComfort  
Time TempWeatherWind HumidityBarometerVisibility
5:53 PM
Sat, Feb 6
57 °FHeavy rain. Fog.12 mph96%30.08 "Hg2 mi
3:53 PM58 °FLight rain. Fog.10 mph97%30.07 "Hg5 mi
2:53 PM60 °FMostly cloudy.12 mph96%30.06 "Hg8 mi
1:53 PM63 °FMostly cloudy.8 mph90%30.08 "Hg10 mi
12:53 PM68 °FMostly cloudy.No wind73%30.11 "Hg10 mi
11:53 AM67 °FOvercast.7 mph71%30.14 "Hg10 mi
10:53 AM64 °FMostly cloudy.7 mph73%30.16 "Hg10 mi
9:53 AM60 °FMostly cloudy.7 mph75%30.16 "Hg10 mi
8:53 AM56 °FPartly sunny.6 mph81%30.16 "Hg10 mi
7:53 AM54 °FMostly cloudy.9 mph83%30.15 "Hg10 mi
6:53 AM53 °FPassing clouds.6 mph83%30.14 "Hg10 mi
5:53 AM53 °FOvercast.6 mph83%30.15 "Hg10 mi
4:53 AM52 °FMostly cloudy.7 mph83%30.13 "Hg10 mi
3:53 AM52 °FPassing clouds.8 mph80%30.12 "Hg10 mi
2:53 AM52 °FOvercast.10 mph80%30.15 "Hg10 mi
1:53 AM52 °FPassing clouds.10 mph77%30.15 "Hg10 mi
12:53 AM53 °FPassing clouds.13 mph74%30.18 "Hg10 mi
11:53 PM
Fri, Feb 5
54 °FOvercast.12 mph72%30.20 "Hg10 mi
10:53 PM55 °FPassing clouds.12 mph69%30.22 "Hg10 mi
9:53 PM54 °FPassing clouds.12 mph72%30.22 "Hg10 mi
8:53 PM55 °FClear.13 mph69%30.22 "Hg10 mi
Weather by CustomWeather, © 2016

See weather overviewHow to use our weather pages